フィンレー彗星

15P/Finlay (2002)

English version
Home page
Total 6,336 html files since Dec. 4, 1995
Updated on May 6, 2008

---------------------------------------------------------------------

・ プロフィール

・ 軌道要素

Epoch 2002 Feb. 15.0 TT = JDT 2452320.5
T 2002 Feb. 7.2056 TT                                   MPCN
q   1.034134             (2000.0)            P               Q
n   0.1459809      Peri.  323.6418      +0.9944023      -0.0965799
a   3.572225       Node    41.9642      +0.1055698      +0.8914350
e   0.710507       Incl.    3.6744      +0.0043606      +0.4427368
P   6.75
From 60 observations 1967-2002, mean residual 1".2.  Nongravitational
     parameters A1 = +0.10, A2 = +0.0185.

・ 星図

・ 光度変化

        m1 = 11.5 + 5 logΔ + 25.0 log r(t - 20)  [  ,20]  (              〜2002年 2月27日)
        m1 = 11.6 + 5 logΔ + 17.0 log r(t - 20)  [20,  ]  (2002年 2月27日〜              )

---------------------------------------------------------------------

軌道要素はMPCのEphemerides and Orbital Elementsに掲載されたものです。
星図は StellaNavigator Ver.2.0 for Windows (アストロアーツ 編著 / アスキー出版局刊) で作成したものです。
光度グラフはComet for Windowsで作成したものです。

---------------------------------------------------------------------

Copyright(C) 1995-2008 Seiichi Yoshida (comet@aerith.net). All rights reserved.